Weather History for Biloxi, MS

Change the Weather History Date:

Friday, September 6, 2013

  Actual Average Record
Temperature  
Mean Temperature 82 °F -  
Max Temperature 91 °F 86 °F 95 °F (1963)
Min Temperature 75 °F 72 °F 59 °F (2011)
Cooling Degree Days 18    
Growing Degree Days 32 (Base 50)    
Moisture  
Dew Point 74 °F    
Average Humidity 77    
Maximum Humidity 94    
Minimum Humidity 55    
Precipitation  
Precipitation 0.00 in - - ()
Sea Level Pressure  
Sea Level Pressure 30.06 in    
Wind  
Wind Speed 5 mph (ENE)    
Max Wind Speed 8 mph    
Max Gust Speed -    
Visibility 10 miles    
Events      
Averages and records for this station are not official NWS values.
T = Trace of Precipitation, MM = Missing Value Source: NWS Daily Summary

Daily Weather History Graph

Daily Weather History Graph

Search for Another Location

Airport:

Trip Planner

Search our weather history database for the weather conditions in past years. The results will help you decide how hot, cold, wet, or windy it might be!

Date:

Astronomy

Sep. 06, 2013 Rise Set
Actual Time 6:35 AM CDT 7:12 PM CDT
Civil Twilight 6:11 AM CDT 7:36 PM CDT
Nautical Twilight 5:42 AM CDT 8:04 PM CDT
Astronomical Twilight 5:13 AM CDT 8:33 PM CDT
Moon 7:38 AM CDT (9/6) 7:47 PM CDT (9/6)
Length of Visible Light 13h 25m
Length of Day
12h 36m
New Moon, 2% of the Moon is Illuminated
Sep 6
New Moon
Sep 12
First Quarter
Sep 19
Full
Sep 26
Last Quarter
Oct 4
New

Hourly Weather History & Observations

Time (CDT) Temp. Heat Index Dew Point Humidity Pressure Visibility Wind Dir Wind Speed Gust Speed Precip Events Conditions
12:58 AM 77.0 °F - 74.3 °F 91% 30.07 in 10.0 mi NE 4.6 mph - N/A   Clear
1:58 AM 77.2 °F - 74.1 °F 90% 30.06 in 10.0 mi East 1.2 mph - N/A   Clear
2:58 AM 76.5 °F - 73.9 °F 92% 30.05 in 10.0 mi ENE 3.5 mph - N/A   Clear
3:58 AM 75.9 °F - 73.8 °F 93% 30.06 in 10.0 mi NE 4.6 mph - N/A   Clear
4:58 AM 75.2 °F - 73.4 °F 94% 30.06 in 10.0 mi NE 2.3 mph - N/A   Clear
5:58 AM 75.0 °F - 73.0 °F 94% 30.07 in 10.0 mi NE 3.5 mph - N/A   Clear
6:58 AM 75.4 °F - 73.6 °F 94% 30.09 in 10.0 mi NE 5.8 mph - N/A   Clear
7:58 AM 77.9 °F - 74.3 °F 89% 30.10 in 9.0 mi NE 8.1 mph - N/A   Clear
7:59 AM 78.8 °F - 73.4 °F 83% 30.09 in 8.0 mi NE 8.1 mph - N/A   Clear
8:09 AM 78.8 °F - 73.4 °F 83% 30.09 in 10.0 mi NE 8.1 mph - N/A   Clear
8:14 AM 78.8 °F - 73.4 °F 83% 30.09 in 10.0 mi NE 5.8 mph - N/A   Clear
8:15 AM 78.8 °F - 73.4 °F 83% 30.09 in 10.0 mi NE 5.8 mph - N/A   Clear
8:22 AM 78.8 °F - 73.4 °F 83% 30.09 in 10.0 mi NNE 6.9 mph - N/A   Clear
8:58 AM 80.6 °F 85.4 °F 73.4 °F 79% 30.10 in 10.0 mi NE 6.9 mph - N/A   Clear
9:58 AM 86.0 °F 95.1 °F 75.2 °F 70% 30.11 in 7.0 mi NE 6.9 mph - N/A   Clear
10:58 AM 86.0 °F 95.1 °F 75.2 °F 70% 30.11 in 7.0 mi NE 6.9 mph - N/A   Clear
11:58 AM 90.1 °F 97.3 °F 72.0 °F 55% 30.10 in 10.0 mi Variable 4.6 mph - N/A   Clear
12:35 PM 89.6 °F 98.2 °F 73.4 °F 59% 30.08 in 10.0 mi South 6.9 mph - N/A   Scattered Clouds
12:58 PM 89.6 °F 99.8 °F 75.2 °F 62% 30.08 in 10.0 mi SSW 6.9 mph - N/A   Scattered Clouds
1:58 PM 89.6 °F 98.2 °F 73.4 °F 59% 30.07 in 10.0 mi South 6.9 mph - N/A   Clear
2:55 PM 87.8 °F 92.6 °F 69.8 °F 55% 30.05 in 10.0 mi South 8.1 mph - N/A   Scattered Clouds
3:57 PM 89.6 °F 98.2 °F 73.4 °F 59% 30.01 in 10.0 mi South 6.9 mph - N/A   Scattered Clouds
4:59 PM 87.8 °F 93.8 °F 71.6 °F 58% 30.02 in 10.0 mi SSE 6.9 mph - N/A   Partly Cloudy
5:55 PM 86.0 °F 91.8 °F 71.6 °F 62% 30.01 in 10.0 mi South 4.6 mph - N/A   Mostly Cloudy
6:58 PM 83.3 °F 89.3 °F 72.9 °F 71% 30.01 in 10.0 mi South 4.6 mph - N/A   Scattered Clouds
7:58 PM 83.3 °F 89.3 °F 73.0 °F 71% 30.02 in 10.0 mi SW 3.5 mph - N/A   Clear
8:58 PM 82.9 °F 88.8 °F 73.2 °F 72% 30.03 in 10.0 mi Calm Calm - N/A   Clear
9:58 PM 80.8 °F 86.7 °F 75.6 °F 84% 30.03 in 10.0 mi NNW 3.5 mph - N/A   Clear
10:58 PM 80.1 °F 84.9 °F 74.8 °F 84% 30.04 in 10.0 mi NNW 2.3 mph - N/A   Clear
11:58 PM 77.9 °F - 74.3 °F 89% 30.03 in 10.0 mi NNE 3.5 mph - N/A   Clear